EW9807 Weather Reports


time (UTC)temp
C
wind
direction
speed
KPH
gust
KPH
rain 1hr
cm
rain 24hr
cm
rain mn
cm
humidity
%
barometer
mb
20260903222601 34 160 1.6 11.3 0.00 0.00 0.00 50 1012.8
20260903222100 34 169 3.2 8.0 0.00 0.00 0.00 50 1012.8
20260903221600 34 103 0.0 4.8 0.00 0.00 0.00 50 1012.7
20260903221059 34 109 1.6 9.7 0.00 0.00 0.00 50 1012.7
20260903220559 33 122 3.2 9.7 0.00 0.00 0.00 51 1012.7
20260903220113 34 85 0.0 8.0 0.00 0.00 0.00 51 1012.8
20260903215603 34 116 0.0 8.0 0.00 0.00 0.00 53 1012.8
20260903215058 34 94 3.2 8.0 0.00 0.00 0.00 51 1012.8
20260903214603 34 168 0.0 8.0 0.00 0.00 0.00 52 1012.8
20260903214058 34 190 1.6 8.0 0.00 0.00 0.00 52 1012.8
20260903213558 34 129 1.6 6.4 0.00 0.00 0.00 51 1012.8
20260903213101 33 139 3.2 6.4 0.00 0.00 0.00 52 1012.8
20260903212556 33 134 1.6 6.4 0.00 0.00 0.00 53 1012.9
20260903212057 34 86 1.6 6.4 0.00 0.00 0.00 52 1013.0
20260903211556 34 158 1.6 8.0 0.00 0.00 0.00 51 1013.0
20260903211056 34 81 4.8 8.0 0.00 0.00 0.00 52 1013.0
20260903210555 34 143 1.6 11.3 0.00 0.00 0.00 52 1013.0
20260903210055 34 164 3.2 11.3 0.00 0.00 0.00 53 1013.0
20260903205555 34 123 1.6 4.8 0.00 0.00 0.00 52 1013.1
20260903205054 33 121 0.0 3.2 0.00 0.00 0.00 55 1013.2
20260903204554 33 123 1.6 3.2 0.00 0.00 0.00 57 1013.1
20260903204052 33 121 0.0 6.4 0.00 0.00 0.00 57 1013.3
20260903203555 33 121 0.0 6.4 0.00 0.00 0.00 55 1013.4
20260903203052 33 128 1.6 4.8 0.00 0.00 0.00 57 1013.4
20260903202555 33 142 1.6 4.8 0.00 0.00 0.00 54 1013.4
20260903202052 33 98 1.6 4.8 0.00 0.00 0.00 56 1013.5
20260903201554 33 119 1.6 6.4 0.00 0.00 0.00 55 1013.5
20260903201050 33 74 0.0 6.4 0.00 0.00 0.00 55 1013.7
20260903200549 33 72 1.6 6.4 0.00 0.00 0.00 56 1013.7
20260903200048 33 72 0.0 6.4 0.00 0.00 0.00 55 1013.9
20260903195549 33 224 0.0 4.8 0.00 0.00 0.00 57 1014.0
20260903195047 33 215 0.0 3.2 0.00 0.00 0.00 56 1014.0
20260903194551 33 215 0.0 4.8 0.00 0.00 0.00 54 1014.0
20260903194046 33 129 1.6 4.8 0.00 0.00 0.00 52 1014.2
20260903193549 34 150 1.6 6.4 0.00 0.00 0.00 52 1014.2
20260903193051 34 169 1.6 6.4 0.00 0.00 0.00 53 1014.2
20260903192545 34 139 1.6 8.0 0.00 0.00 0.00 53 1014.2
20260903192044 34 68 3.2 8.0 0.00 0.00 0.00 52 1014.3
20260903191548 34 181 1.6 11.3 0.00 0.00 0.00 54 1014.4
20260903191043 34 136 4.8 11.3 0.00 0.00 0.00 52 1014.4
20260903190542 34 174 3.2 9.7 0.00 0.00 0.00 53 1014.5
20260903190055 34 158 3.2 9.7 0.00 0.00 0.00 55 1014.5
20260903185541 33 160 1.6 4.8 0.00 0.00 0.00 55 1014.6
20260903185042 32 88 0.0 4.8 0.00 0.00 0.00 58 1014.6
20260903184541 32 172 0.0 1.6 0.00 0.00 0.00 58 1014.6
20260903184041 33 173 0.0 3.2 0.00 0.00 0.00 56 1014.7
20260903183540 33 173 0.0 6.4 0.00 0.00 0.00 54 1014.8
20260903183039 34 171 3.2 6.4 0.00 0.00 0.00 55 1014.8
20260903182539 33 148 3.2 8.0 0.00 0.00 0.00 54 1014.9
20260903182038 34 175 3.2 8.0 0.00 0.00 0.00 56 1014.9
20260903181545 33 96 1.6 6.4 0.00 0.00 0.00 57 1014.9
20260903181040 32 79 0.0 3.2 0.00 0.00 0.00 58 1014.9
20260903180537 33 77 1.6 4.8 0.00 0.00 0.00 56 1015.0
20260903180040 33 82 1.6 4.8 0.00 0.00 0.00 58 1015.0
20260903175537 32 46 0.0 0.0 0.00 0.00 0.00 60 1015.1
20260903175036 33 46 0.0 4.8 0.00 0.00 0.00 56 1015.0
20260903174536 34 115 0.0 9.7 0.00 0.00 0.00 55 1015.2
20260903174033 34 186 1.6 8.0 0.00 0.00 0.00 56 1015.2
20260903173534 33 6 0.0 4.8 0.00 0.00 0.00 57 1015.3
20260903173033 33 6 1.6 4.8 0.00 0.00 0.00 58 1015.3
20260903172533 33 98 0.0 11.3 0.00 0.00 0.00 57 1015.3
20260903172032 32 174 4.8 11.3 0.00 0.00 0.00 61 1015.5
20260903171537 32 32 3.2 9.7 0.00 0.00 0.00 60 1015.5
20260903171032 32 56 0.0 3.2 0.00 0.00 0.00 62 1015.6
20260903170531 32 56 0.0 4.8 0.00 0.00 0.00 61 1015.7
20260903170035 33 56 0.0 6.4 0.00 0.00 0.00 57 1015.6
20260903165532 34 235 1.6 6.4 0.00 0.00 0.00 56 1015.7
20260903165028 34 91 1.6 6.4 0.00 0.00 0.00 58 1015.7
20260903164529 33 172 1.6 8.0 0.00 0.00 0.00 58 1015.8
20260903164027 33 3 1.6 6.4 0.00 0.00 0.00 60 1015.8
20260903163526 32 74 1.6 4.8 0.00 0.00 0.00 61 1015.9
20260903163033 32 319 1.6 4.8 0.00 0.00 0.00 62 1016.0
20260903162525 32 327 1.6 4.8 0.00 0.00 0.00 62 1016.1
20260903162025 32 46 1.6 6.4 0.00 0.00 0.00 61 1016.2
20260903161525 32 125 3.2 6.4 0.00 0.00 0.00 61 1016.2
20260903161023 32 313 0.0 4.8 0.00 0.00 0.00 64 1016.2
20260903160525 32 313 0.0 4.8 0.00 0.00 0.00 63 1016.2
20260903160020 32 311 1.6 6.4 0.00 0.00 0.00 65 1016.3
20260903155518 32 88 1.6 6.4 0.00 0.00 0.00 65 1016.4
20260903155017 31 120 0.0 4.8 0.00 0.00 0.00 67 1016.5
20260903154517 31 200 0.0 4.8 0.00 0.00 0.00 67 1016.4
20260903154020 31 69 0.0 3.2 0.00 0.00 0.00 70 1016.5
20260903153514 31 62 1.6 3.2 0.00 0.00 0.00 67 1016.4
20260903153014 31 62 1.6 4.8 0.00 0.00 0.00 69 1016.4
20260903152516 31 86 1.6 4.8 0.00 0.00 0.00 68 1016.5
20260903152011 31 189 0.0 3.2 0.00 0.00 0.00 70 1016.5
20260903151509 30 191 0.0 3.2 0.00 0.00 0.00 69 1016.4
20260903151008 30 226 0.0 3.2 0.00 0.00 0.00 71 1016.5
20260903150506 30 292 1.6 3.2 0.00 0.00 0.00 70 1016.5
20260903150006 30 186 0.0 3.2 0.00 0.00 0.00 71 1016.5
20260903145503 29 186 0.0 3.2 0.00 0.00 0.00 72 1016.4
20260903145003 29 186 0.0 6.4 0.00 0.00 0.00 72 1016.5
20260903144501 29 186 1.6 6.4 0.00 0.00 0.00 73 1016.5
20260903144103 29 187 0.0 3.2 0.00 0.00 0.00 75 1016.5
20260903143600 28 127 0.0 0.0 0.00 0.00 0.00 76 1016.5
20260903143101 28 127 0.0 0.0 0.00 0.00 0.00 77 1016.4
20260903142557 28 127 0.0 0.0 0.00 0.00 0.00 77 1016.5
20260903142101 28 127 0.0 0.0 0.00 0.00 0.00 78 1016.5
20260903141600 28 127 0.0 0.0 0.00 0.00 0.00 79 1016.5
20260903141056 28 127 0.0 0.0 0.00 0.00 0.00 78 1016.4
20260903140553 27 127 0.0 0.0 0.00 0.00 0.00 78 1016.4
20260903140052 27 127 0.0 1.6 0.00 0.00 0.00 80 1016.4
20260903135550 27 127 0.0 3.2 0.00 0.00 0.00 82 1016.4
20260903135050 27 127 0.0 3.2 0.00 0.00 0.00 82 1016.6
20260903134548 27 127 0.0 0.0 0.00 0.00 0.00 82 1016.6
20260903134050 27 127 0.0 0.0 0.00 0.00 0.00 83 1016.6
20260903133547 26 127 0.0 0.0 0.00 0.00 0.00 83 1016.7
20260903133047 26 127 0.0 0.0 0.00 0.00 0.00 83 1016.7
20260903132544 26 127 0.0 0.0 0.00 0.00 0.00 84 1016.7
20260903132044 26 127 0.0 0.0 0.00 0.00 0.00 85 1016.7
20260903131544 26 127 0.0 0.0 0.00 0.00 0.00 86 1016.7
20260903131042 26 127 0.0 0.0 0.00 0.00 0.00 86 1016.8
20260903130540 25 127 0.0 0.0 0.00 0.00 0.00 87 1016.8
20260903130040 25 127 0.0 0.0 0.00 0.00 0.00 90 1016.8
20260903125540 25 127 0.0 0.0 0.00 0.00 0.00 90 1016.8
20260903125040 25 127 0.0 0.0 0.00 0.00 0.00 91 1016.8
20260903124539 25 127 0.0 0.0 0.00 0.00 0.00 91 1016.9
20260903124038 24 127 0.0 0.0 0.00 0.00 0.00 92 1016.9
20260903123538 24 127 0.0 0.0 0.00 0.00 0.00 93 1016.8
20260903123037 24 127 0.0 0.0 0.00 0.00 0.00 93 1016.8
20260903122537 23 127 0.0 0.0 0.00 0.00 0.00 94 1016.7
20260903122035 23 127 0.0 0.0 0.00 0.00 0.00 94 1016.6
20260903121534 23 127 0.0 0.0 0.00 0.00 0.00 94 1016.7
20260903121033 23 127 0.0 0.0 0.00 0.00 0.00 94 1016.6
20260903120532 23 127 0.0 0.0 0.00 0.00 0.00 94 1016.6
20260903120034 23 127 0.0 0.0 0.00 0.00 0.00 94 1016.4
20260903115531 23 127 0.0 0.0 0.00 0.00 0.00 94 1016.4
20260903115032 23 127 0.0 0.0 0.00 0.00 0.00 94 1016.4
20260903114531 23 127 0.0 0.0 0.00 0.00 0.00 94 1016.3
20260903114028 23 127 0.0 0.0 0.00 0.00 0.00 94 1016.2
20260903113531 23 127 0.0 0.0 0.00 0.00 0.00 94 1016.2
20260903113028 23 127 0.0 0.0 0.00 0.00 0.00 94 1016.2
20260903112527 23 127 0.0 0.0 0.00 0.00 0.00 94 1016.1
20260903112031 23 127 0.0 0.0 0.00 0.00 0.00 93 1016.0
20260903111526 23 127 0.0 0.0 0.00 0.00 0.00 93 1016.1
20260903111029 23 127 0.0 0.0 0.00 0.00 0.00 93 1016.0
20260903110525 23 127 0.0 0.0 0.00 0.00 0.00 93 1015.8
20260903110025 23 127 0.0 0.0 0.00 0.00 0.00 93 1015.8
20260903105524 23 127 0.0 0.0 0.00 0.00 0.00 93 1015.8
20260903105024 23 127 0.0 0.0 0.00 0.00 0.00 93 1015.8
20260903104523 23 127 0.0 0.0 0.00 0.00 0.00 93 1015.8
20260903104022 23 127 0.0 0.0 0.00 0.00 0.00 93 1015.8
20260903103523 23 127 0.0 0.0 0.00 0.00 0.00 92 1015.7
20260903103022 23 127 0.0 0.0 0.00 0.00 0.00 93 1015.7
20260903102522 23 127 0.0 0.0 0.00 0.00 0.00 93 1015.6
20260903102022 23 127 0.0 0.0 0.00 0.00 0.00 93 1015.6
20260903101521 23 127 0.0 0.0 0.00 0.00 0.00 93 1015.6
20260903101022 23 127 0.0 0.0 0.00 0.00 0.00 92 1015.6
20260903100521 23 127 0.0 0.0 0.00 0.00 0.00 92 1015.5
20260903100026 23 127 0.0 0.0 0.00 0.00 0.00 92 1015.5
20260903095520 23 127 0.0 0.0 0.00 0.00 0.00 92 1015.6
20260903095020 23 127 0.0 0.0 0.00 0.00 0.00 92 1015.5
20260903094520 23 127 0.0 0.0 0.00 0.00 0.00 92 1015.5
20260903094019 23 127 0.0 0.0 0.00 0.00 0.00 92 1015.5
20260903093525 23 127 0.0 0.0 0.00 0.00 0.00 92 1015.5
20260903093030 23 127 0.0 0.0 0.00 0.00 0.00 92 1015.4
20260903092519 23 127 0.0 0.0 0.00 0.00 0.00 91 1015.4
20260903092018 23 127 0.0 0.0 0.00 0.00 0.00 91 1015.5
20260903091518 23 127 0.0 0.0 0.00 0.00 0.00 91 1015.6
20260903091018 23 127 0.0 0.0 0.00 0.00 0.00 91 1015.5
20260903090517 23 127 0.0 0.0 0.00 0.00 0.00 91 1015.6
20260903090017 23 127 0.0 0.0 0.00 0.00 0.00 91 1015.5
20260903085517 23 127 0.0 0.0 0.00 0.00 0.00 91 1015.6
20260903085016 23 127 0.0 0.0 0.00 0.00 0.00 91 1015.6
20260903084516 23 127 0.0 0.0 0.00 0.00 0.00 91 1015.6
20260903084016 23 127 0.0 0.0 0.00 0.00 0.00 91 1015.6
20260903083515 23 127 0.0 0.0 0.00 0.00 0.00 91 1015.6
20260903083015 23 127 0.0 0.0 0.00 0.00 0.00 91 1015.6
20260903082518 23 127 0.0 0.0 0.00 0.00 0.00 90 1015.5
20260903082016 23 127 0.0 0.0 0.00 0.00 0.00 90 1015.5
20260903081527 23 127 0.0 0.0 0.00 0.00 0.00 90 1015.5
20260903081018 23 127 0.0 0.0 0.00 0.00 0.00 90 1015.5
20260903080517 23 127 0.0 0.0 0.00 0.00 0.00 90 1015.5
20260903080013 23 127 0.0 0.0 0.00 0.00 0.00 90 1015.5
20260903075513 24 127 0.0 0.0 0.00 0.00 0.00 90 1015.5
20260903075012 24 127 0.0 0.0 0.00 0.00 0.00 90 1015.5
20260903074511 24 127 0.0 0.0 0.00 0.00 0.00 90 1015.5
20260903074011 24 127 0.0 0.0 0.00 0.00 0.00 90 1015.4
20260903073511 24 127 0.0 0.0 0.00 0.00 0.00 90 1015.5
20260903073010 24 127 0.0 0.0 0.00 0.00 0.00 89 1015.5
20260903072510 24 127 0.0 0.0 0.00 0.00 0.00 89 1015.5
20260903072011 24 127 0.0 0.0 0.00 0.00 0.00 89 1015.5
20260903071511 24 127 0.0 0.0 0.00 0.00 0.00 89 1015.4
20260903071010 24 127 0.0 0.0 0.00 0.00 0.00 89 1015.4
20260903070512 24 127 0.0 0.0 0.00 0.00 0.00 89 1015.4
20260903070009 24 127 0.0 0.0 0.00 0.00 0.00 89 1015.4
20260903065508 24 127 0.0 0.0 0.00 0.00 0.00 89 1015.5
20260903065007 24 127 0.0 0.0 0.00 0.00 0.00 88 1015.5
20260903064507 24 127 0.0 0.0 0.00 0.00 0.00 88 1015.4
20260903064007 24 127 0.0 0.0 0.00 0.00 0.00 88 1015.5
20260903063510 25 127 0.0 0.0 0.00 0.00 0.00 88 1015.5
20260903063006 24 127 0.0 0.0 0.00 0.00 0.00 88 1015.6
20260903062506 25 127 0.0 0.0 0.00 0.00 0.00 88 1015.6
20260903062008 25 127 0.0 0.0 0.00 0.00 0.00 88 1015.6
20260903061505 25 127 0.0 0.0 0.00 0.00 0.00 88 1015.7
20260903061005 25 127 0.0 0.0 0.00 0.00 0.00 87 1015.8
20260903060504 25 127 0.0 0.0 0.00 0.00 0.00 87 1015.6
20260903060013 25 127 0.0 0.0 0.00 0.00 0.00 87 1015.6
20260903055504 25 127 0.0 0.0 0.00 0.00 0.00 87 1015.6
20260903055003 25 127 0.0 0.0 0.00 0.00 0.00 87 1015.6
20260903054503 25 127 0.0 0.0 0.00 0.00 0.00 88 1015.6
20260903054003 25 127 0.0 0.0 0.00 0.00 0.00 88 1015.7
20260903053501 25 127 0.0 0.0 0.00 0.00 0.00 88 1015.7
20260903053001 25 127 0.0 0.0 0.00 0.00 0.00 86 1015.7
20260903052501 25 127 0.0 0.0 0.00 0.00 0.00 86 1015.7
20260903052002 25 127 0.0 0.0 0.00 0.00 0.00 86 1015.8
20260903051501 25 127 0.0 0.0 0.00 0.00 0.00 86 1015.8
20260903051002 25 127 0.0 0.0 0.00 0.00 0.00 86 1015.8
20260903050600 25 127 0.0 0.0 0.00 0.00 0.00 87 1015.8
20260903050113 25 127 0.0 0.0 0.00 0.00 0.00 86 1015.8
20260903045600 25 127 0.0 0.0 0.00 0.00 0.00 85 1015.8
20260903045059 25 127 0.0 0.0 0.00 0.00 0.00 85 1015.7
20260903044604 25 127 0.0 0.0 0.00 0.00 0.00 85 1015.7
20260903044059 25 127 0.0 0.0 0.00 0.00 0.00 85 1015.7
20260903043558 25 127 0.0 0.0 0.00 0.00 0.00 84 1015.6
20260903043058 25 127 0.0 0.0 0.00 0.00 0.00 85 1015.7
20260903042558 25 127 0.0 0.0 0.00 0.00 0.00 85 1015.7
20260903042101 25 127 0.0 0.0 0.00 0.00 0.00 86 1015.7
20260903041609 25 127 0.0 0.0 0.00 0.00 0.00 86 1015.7
20260903041058 25 127 0.0 0.0 0.00 0.00 0.00 85 1015.8
20260903040557 25 127 0.0 0.0 0.00 0.00 0.00 86 1015.8
20260903040100 25 127 0.0 0.0 0.00 0.00 0.00 85 1015.7
20260903035554 25 127 0.0 0.0 0.00 0.00 0.00 84 1015.8
20260903035054 25 127 0.0 0.0 0.00 0.00 0.00 83 1015.7
20260903034603 25 127 0.0 0.0 0.00 0.00 0.00 83 1015.7
20260903034057 25 127 0.0 0.0 0.00 0.00 0.00 83 1015.6
20260903033554 25 127 0.0 0.0 0.00 0.00 0.00 83 1015.7
20260903033054 26 127 0.0 0.0 0.00 0.00 0.00 83 1015.7
20260903032554 26 127 0.0 0.0 0.00 0.00 0.00 83 1015.8
20260903032056 26 127 0.0 0.0 0.00 0.00 0.00 82 1015.8
20260903031555 26 127 0.0 0.0 0.00 0.00 0.00 82 1015.8
20260903031056 26 127 0.0 0.0 0.00 0.00 0.00 83 1015.8
20260903030556 26 127 0.0 0.0 0.00 0.00 0.00 83 1015.8
20260903030053 26 127 0.0 0.0 0.00 0.00 0.00 83 1015.9
20260903025553 26 127 0.0 0.0 0.00 0.00 0.00 83 1016.0
20260903025054 26 127 0.0 0.0 0.00 0.00 0.00 82 1016.0
20260903024553 26 127 0.0 0.0 0.00 0.00 0.00 81 1016.0
20260903024053 26 127 0.0 0.0 0.00 0.00 0.00 81 1016.0
20260903023552 26 127 0.0 0.0 0.00 0.00 0.00 81 1015.9
20260903023054 26 127 0.0 0.0 0.00 0.00 0.00 80 1015.9
20260903022554 26 127 0.0 0.0 0.00 0.00 0.00 81 1016.0
20260903022052 26 127 0.0 0.0 0.00 0.00 0.00 80 1016.0
20260903021556 26 127 0.0 0.0 0.00 0.00 0.00 79 1015.9
20260903021054 26 127 0.0 0.0 0.00 0.00 0.00 79 1015.9
20260903020554 26 127 0.0 0.0 0.00 0.00 0.00 79 1015.9
20260903020054 27 127 0.0 0.0 0.00 0.00 0.00 78 1015.8
20260903015551 27 127 0.0 0.0 0.00 0.00 0.00 79 1015.8
20260903015051 27 127 0.0 0.0 0.00 0.00 0.00 79 1015.7
20260903014603 27 127 0.0 0.0 0.00 0.00 0.00 77 1015.6
20260903014054 27 127 0.0 1.6 0.00 0.00 0.00 74 1015.6
20260903013552 28 127 0.0 1.6 0.00 0.00 0.00 73 1015.5
20260903013101 28 127 0.0 1.6 0.00 0.00 0.00 72 1015.5
20260903012550 28 127 0.0 1.6 0.00 0.00 0.00 71 1015.5
20260903012050 29 127 0.0 1.6 0.00 0.00 0.00 70 1015.3
20260903011550 29 127 0.0 1.6 0.00 0.00 0.00 69 1015.3
20260903011051 29 127 0.0 3.2 0.00 0.00 0.00 67 1015.3
20260903010550 30 127 0.0 3.2 0.00 0.00 0.00 65 1015.2
20260903010050 30 120 0.0 1.6 0.00 0.00 0.00 67 1015.1
20260903005550 30 120 0.0 6.4 0.00 0.00 0.00 63 1015.1
20260903005050 30 122 0.0 1.6 0.00 0.00 0.00 63 1015.1
20260903004554 30 122 0.0 3.2 0.00 0.00 0.00 63 1015.0
20260903004049 30 122 0.0 3.2 0.00 0.00 0.00 63 1015.0
20260903003548 30 122 0.0 0.0 0.00 0.00 0.00 64 1015.0
20260903003105 30 122 0.0 0.0 0.00 0.00 0.00 65 1014.9
20260903002549 29 122 0.0 0.0 0.00 0.00 0.00 67 1014.9
20260903002049 30 122 0.0 0.0 0.00 0.00 0.00 67 1014.7
20260903001550 30 122 0.0 0.0 0.00 0.00 0.00 66 1014.7
20260903001048 30 122 0.0 0.0 0.00 0.00 0.00 67 1014.6
20260903000548 30 122 0.0 0.0 0.00 0.00 0.00 66 1014.6
20260903000059 30 122 0.0 0.0 0.00 0.00 0.00 65 1014.7
20260902235548 30 122 0.0 0.0 0.00 0.00 0.00 65 1014.6
20260902235047 30 122 0.0 0.0 0.00 0.00 0.00 64 1014.5
20260902234548 30 122 0.0 0.0 0.00 0.00 0.00 65 1014.5
20260902234051 31 122 0.0 0.0 0.00 0.00 0.00 63 1014.5
20260902233547 31 122 0.0 0.0 0.00 0.00 0.00 61 1014.6
20260902233047 31 122 0.0 0.0 0.00 0.00 0.00 61 1014.6
20260902232548 31 122 0.0 0.0 0.00 0.00 0.00 60 1014.6
20260902232047 32 122 0.0 0.0 0.00 0.00 0.00 60 1014.6
20260902231548 32 122 0.0 0.0 0.00 0.00 0.00 59 1014.5
20260902231046 32 122 0.0 0.0 0.00 0.00 0.00 56 1014.5
20260902230546 32 122 0.0 0.0 0.00 0.00 0.00 55 1014.5
20260902230048 32 122 0.0 1.6 0.00 0.00 0.00 57 1014.5
20260902225548 32 122 0.0 3.2 0.00 0.00 0.00 56 1014.5
20260902225046 32 122 0.0 3.2 0.00 0.00 0.00 56 1014.5
20260902224605 32 122 0.0 1.6 0.00 0.00 0.00 57 1014.5
20260902224047 32 122 0.0 1.6 0.00 0.00 0.00 55 1014.6
20260902223547 32 122 0.0 4.8 0.00 0.00 0.00 54 1014.6
20260902223049 33 122 0.0 4.8 0.00 0.00 0.00 53 1014.6